TimeMST,TemperatureF,Dew PointF,Humidity,Sea Level PressureIn,VisibilityMPH,Wind Direction,Wind SpeedMPH,Gust SpeedMPH,PrecipitationIn,Events,Conditions,WindDirDegrees,DateUTC
12:55 AM,46.4,44.6,93,30.10,10.0,South,5.8,-,N/A,,Overcast,170,2012-11-04 06:55:00
1:55 AM,44.1,43.0,96,30.15,10.0,Calm,Calm,-,N/A,,Overcast,0,2012-11-04 07:55:00
1:55 AM,46.9,44.1,90,30.16,10.0,WSW,4.6,-,N/A,,Overcast,250,2012-11-04 08:55:00
2:55 AM,44.1,42.1,93,30.19,10.0,Variable,4.6,-,N/A,,Overcast,0,2012-11-04 09:55:00
3:55 AM,44.1,42.1,93,30.20,10.0,Calm,Calm,-,0.00,,Overcast,0,2012-11-04 10:55:00
4:55 AM,44.1,42.1,93,30.22,10.0,Calm,Calm,-,0.01,,Overcast,0,2012-11-04 11:55:00
5:55 AM,44.1,43.0,96,30.24,10.0,Calm,Calm,-,N/A,,Overcast,0,2012-11-04 12:55:00
6:55 AM,46.0,44.1,93,30.26,10.0,WSW,3.5,-,N/A,,Overcast,240,2012-11-04 13:55:00
7:55 AM,46.0,43.0,89,30.28,10.0,WSW,5.8,-,N/A,,Overcast,240,2012-11-04 14:55:00
8:55 AM,46.0,44.1,93,30.30,10.0,Calm,Calm,-,N/A,,Overcast,0,2012-11-04 15:55:00
9:55 AM,48.9,46.0,90,30.30,10.0,SSW,4.6,-,N/A,,Overcast,200,2012-11-04 16:55:00
10:55 AM,53.1,46.0,77,30.31,10.0,South,6.9,-,N/A,,Mostly Cloudy,190,2012-11-04 17:55:00
11:55 AM,55.0,46.0,72,30.31,10.0,South,4.6,-,N/A,,Mostly Cloudy,180,2012-11-04 18:55:00
12:55 PM,55.0,46.0,72,30.29,10.0,SSE,8.1,-,N/A,,Overcast,150,2012-11-04 19:55:00
1:55 PM,55.9,46.0,69,30.29,10.0,SSE,9.2,-,N/A,,Overcast,160,2012-11-04 20:55:00
2:55 PM,54.0,46.0,75,30.31,10.0,SSE,9.2,-,N/A,,Overcast,160,2012-11-04 21:55:00
3:55 PM,54.0,46.0,75,30.32,10.0,SSE,8.1,-,N/A,,Overcast,150,2012-11-04 22:55:00
4:55 PM,53.1,45.0,74,30.33,10.0,South,5.8,-,N/A,,Overcast,170,2012-11-04 23:55:00
5:55 PM,53.1,45.0,74,30.32,10.0,SSE,6.9,-,N/A,,Overcast,150,2012-11-05 00:55:00
6:55 PM,52.0,46.0,80,30.31,10.0,SSE,8.1,-,N/A,,Overcast,150,2012-11-05 01:55:00
7:55 PM,53.1,46.0,77,30.30,10.0,South,8.1,-,N/A,,Overcast,180,2012-11-05 02:55:00
8:55 PM,52.0,46.0,80,30.30,10.0,South,9.2,-,N/A,,Overcast,170,2012-11-05 03:55:00
9:55 PM,51.8,44.6,76,30.25,10.0,South,9.2,-,N/A,,Overcast,180,2012-11-05 04:55:00
10:55 PM,52.0,46.0,80,30.26,10.0,SSE,10.4,-,N/A,,Overcast,160,2012-11-05 05:55:00